TimeCST,TemperatureF,Dew PointF,Humidity,Sea Level PressureIn,VisibilityMPH,Wind Direction,Wind SpeedMPH,Gust SpeedMPH,PrecipitationIn,Events,Conditions,WindDirDegrees,DateUTC
12:15 AM,-0.6,-8.0,71,30.39,10.0,WNW,5.8,-,N/A,,Clear,290,2013-02-01 06:15:00
12:35 AM,-1.1,-8.3,72,30.38,10.0,WNW,4.6,-,N/A,,Clear,290,2013-02-01 06:35:00
1:15 AM,-2.7,-9.0,74,30.38,10.0,South,4.6,-,N/A,,Clear,190,2013-02-01 07:15:00
1:35 AM,-1.3,-7.8,74,30.38,10.0,Calm,Calm,-,N/A,,Clear,0,2013-02-01 07:35:00
1:55 AM,-1.3,-8.0,73,30.37,10.0,NW,4.6,-,N/A,,Clear,310,2013-02-01 07:55:00
2:15 AM,-1.3,-8.5,72,30.36,10.0,NW,5.8,-,N/A,,Clear,320,2013-02-01 08:15:00
2:35 AM,-1.1,-8.1,72,30.35,10.0,North,4.6,-,N/A,,Clear,350,2013-02-01 08:35:00
2:55 AM,-3.1,-8.7,77,30.35,10.0,Calm,Calm,-,N/A,,Clear,0,2013-02-01 08:55:00
3:15 AM,-2.9,-9.6,73,30.33,10.0,Calm,Calm,-,N/A,,Clear,0,2013-02-01 09:15:00
3:35 AM,-2.4,-8.5,75,30.33,10.0,East,3.5,-,N/A,,Clear,80,2013-02-01 09:35:00
3:55 AM,-3.5,-9.4,76,30.33,10.0,Calm,Calm,-,N/A,,Clear,0,2013-02-01 09:55:00
4:15 AM,-3.5,-9.0,77,30.34,10.0,South,4.6,-,N/A,,Clear,190,2013-02-01 10:15:00
4:35 AM,-1.5,-6.9,78,30.34,10.0,SSW,4.6,-,N/A,,Mostly Cloudy,210,2013-02-01 10:35:00
4:55 AM,0.3,-5.8,75,30.33,10.0,South,3.5,-,N/A,,Overcast,170,2013-02-01 10:55:00
5:15 AM,0.9,-5.4,75,30.32,10.0,SSE,3.5,-,N/A,,Overcast,160,2013-02-01 11:15:00
5:35 AM,2.3,-4.5,73,30.33,10.0,SSW,3.5,-,N/A,,Overcast,200,2013-02-01 11:35:00
5:55 AM,2.7,-4.0,74,30.32,10.0,South,4.6,-,N/A,,Overcast,190,2013-02-01 11:55:00
6:15 AM,3.0,-3.5,74,30.32,10.0,South,8.1,-,N/A,,Overcast,190,2013-02-01 12:15:00
6:35 AM,3.4,-3.1,74,30.31,10.0,South,9.2,-,N/A,,Overcast,190,2013-02-01 12:35:00
6:55 AM,3.9,-3.6,71,30.31,10.0,South,5.8,-,N/A,,Overcast,180,2013-02-01 12:55:00
7:15 AM,4.5,-3.1,71,30.31,10.0,SSE,8.1,-,N/A,,Overcast,160,2013-02-01 13:15:00
7:35 AM,4.6,-3.3,70,30.29,10.0,SSE,8.1,-,N/A,,Overcast,150,2013-02-01 13:35:00
7:55 AM,4.8,-3.1,70,30.30,10.0,SE,4.6,-,N/A,,Overcast,140,2013-02-01 13:55:00
8:15 AM,4.6,-3.1,70,30.29,10.0,SE,8.1,-,N/A,,Overcast,130,2013-02-01 14:15:00
8:35 AM,5.4,-2.6,70,30.29,10.0,SE,8.1,-,N/A,,Overcast,130,2013-02-01 14:35:00
8:55 AM,5.9,-2.4,69,30.27,10.0,SSE,11.5,-,N/A,,Overcast,160,2013-02-01 14:55:00
9:15 AM,6.6,-2.2,67,30.27,10.0,SSE,11.5,-,N/A,,Overcast,160,2013-02-01 15:15:00
9:35 AM,8.1,-1.1,66,30.26,10.0,SSE,12.7,-,N/A,,Overcast,160,2013-02-01 15:35:00
9:55 AM,9.5,-1.3,62,30.25,10.0,South,16.1,-,N/A,,Scattered Clouds,170,2013-02-01 15:55:00
10:15 AM,10.8,-0.4,61,30.25,10.0,South,17.3,-,N/A,,Clear,170,2013-02-01 16:15:00
10:35 AM,10.9,0.1,62,30.23,10.0,SSE,17.3,-,N/A,,Scattered Clouds,160,2013-02-01 16:35:00
10:55 AM,11.8,1.2,62,30.23,10.0,SSE,15.0,-,N/A,,Clear,160,2013-02-01 16:55:00
11:15 AM,12.9,2.5,63,30.23,10.0,South,16.1,-,N/A,,Clear,170,2013-02-01 17:15:00
11:35 AM,14.0,3.7,64,30.21,10.0,SSE,16.1,-,N/A,,Mostly Cloudy,160,2013-02-01 17:35:00
12:15 PM,14.0,4.6,66,30.17,10.0,South,19.6,-,N/A,,Clear,170,2013-02-01 18:15:00
12:35 PM,14.0,5.0,67,30.14,10.0,SSE,19.6,25.3,N/A,,Scattered Clouds,160,2013-02-01 18:35:00
12:55 PM,16.0,7.2,68,30.11,10.0,South,21.9,-,N/A,,Mostly Cloudy,170,2013-02-01 18:55:00
1:15 PM,18.0,9.0,68,30.11,10.0,South,20.7,26.5,N/A,,Scattered Clouds,180,2013-02-01 19:15:00
1:35 PM,19.9,10.8,68,30.11,10.0,South,17.3,-,N/A,,Scattered Clouds,170,2013-02-01 19:35:00
1:55 PM,20.3,11.5,69,30.10,10.0,South,16.1,24.2,N/A,,Scattered Clouds,170,2013-02-01 19:55:00
2:15 PM,21.2,12.6,69,30.09,10.0,South,15.0,19.6,N/A,,Scattered Clouds,170,2013-02-01 20:15:00
2:35 PM,24.3,15.8,70,30.08,10.0,South,16.1,-,N/A,,Scattered Clouds,180,2013-02-01 20:35:00
2:55 PM,26.8,17.8,69,30.07,10.0,South,17.3,-,N/A,,Clear,190,2013-02-01 20:55:00
3:15 PM,27.3,18.3,69,30.06,10.0,South,18.4,24.2,N/A,,Scattered Clouds,190,2013-02-01 21:15:00
3:35 PM,27.5,18.3,68,30.06,10.0,SSW,20.7,-,N/A,,Mostly Cloudy,200,2013-02-01 21:35:00
3:55 PM,27.9,18.3,67,30.06,10.0,South,24.2,28.8,N/A,,Scattered Clouds,190,2013-02-01 21:55:00
4:15 PM,28.2,18.3,66,30.04,10.0,South,23.0,27.6,N/A,,Scattered Clouds,190,2013-02-01 22:15:00
4:35 PM,27.5,18.0,67,30.03,10.0,South,17.3,-,N/A,,Scattered Clouds,180,2013-02-01 22:35:00
4:55 PM,27.5,18.0,67,30.02,10.0,South,20.7,-,N/A,,Clear,190,2013-02-01 22:55:00
5:15 PM,27.7,18.0,67,30.03,10.0,South,12.7,-,N/A,,Clear,190,2013-02-01 23:15:00
5:35 PM,27.5,17.8,67,30.03,10.0,South,18.4,24.2,N/A,,Scattered Clouds,190,2013-02-01 23:35:00
5:55 PM,27.5,17.6,66,30.03,10.0,South,20.7,25.3,N/A,,Mostly Cloudy,190,2013-02-01 23:55:00
6:15 PM,27.5,18.0,67,30.03,10.0,SSW,19.6,-,N/A,,Overcast,200,2013-02-02 00:15:00
6:35 PM,27.3,18.3,69,30.03,10.0,SSW,21.9,25.3,N/A,,Overcast,200,2013-02-02 00:35:00
6:55 PM,27.3,18.1,68,30.03,10.0,South,23.0,-,N/A,,Mostly Cloudy,190,2013-02-02 00:55:00
7:15 PM,27.1,18.3,69,30.03,10.0,South,21.9,28.8,N/A,,Scattered Clouds,190,2013-02-02 01:15:00
7:35 PM,27.0,18.5,70,30.02,10.0,SSW,19.6,-,N/A,,Mostly Cloudy,200,2013-02-02 01:35:00
7:55 PM,27.1,18.1,69,30.02,10.0,South,19.6,25.3,N/A,,Overcast,190,2013-02-02 01:55:00
8:15 PM,27.3,18.5,69,30.02,10.0,South,19.6,23.0,N/A,,Overcast,190,2013-02-02 02:15:00
8:35 PM,27.3,18.5,69,30.02,10.0,SSW,18.4,24.2,N/A,,Overcast,200,2013-02-02 02:35:00
8:55 PM,27.3,18.5,69,30.02,10.0,South,20.7,-,N/A,,Mostly Cloudy,190,2013-02-02 02:55:00
9:15 PM,27.1,18.9,71,30.02,10.0,South,17.3,-,N/A,,Mostly Cloudy,190,2013-02-02 03:15:00
9:35 PM,27.0,18.5,70,30.03,10.0,SSW,15.0,-,N/A,,Mostly Cloudy,200,2013-02-02 03:35:00
9:55 PM,27.1,19.0,72,30.04,10.0,SSW,12.7,-,N/A,,Mostly Cloudy,200,2013-02-02 03:55:00
10:15 PM,27.5,18.7,69,30.04,10.0,SSW,13.8,-,N/A,,Overcast,210,2013-02-02 04:15:00
10:35 PM,27.5,19.4,72,30.04,10.0,SSW,11.5,-,N/A,,Overcast,210,2013-02-02 04:35:00
10:55 PM,27.3,19.6,73,30.04,10.0,SSW,9.2,-,N/A,,Overcast,210,2013-02-02 04:55:00
11:15 PM,27.5,19.8,73,30.04,10.0,SW,8.1,-,N/A,,Overcast,220,2013-02-02 05:15:00
11:35 PM,27.5,20.3,74,30.04,10.0,SW,9.2,-,N/A,,Overcast,230,2013-02-02 05:35:00
11:55 PM,26.6,20.3,77,30.05,10.0,WSW,6.9,-,N/A,,Overcast,250,2013-02-02 05:55:00